Location: *
(31.2983°S, 151.4094°E)
Time: 08:10:18
(UTC+00:00)

Cosmos 2297 - Pass Details

Date: 27 November 2019
Orbit: 835 x 860 km, 71.0° (Epoch: 11 December)

Event Time Altitude Azimuth Distance (km) Brightness Sun altitude
Exits shadow 13:06:41 28° 155° (SSE) 1,538 5.4 -36.9°
Drops below altitude 10° 13:09:15 10° 158° (SSE) 2,471 6.7 -37.0°
Sets 13:11:42 0° 158° (SSE) 3,411 7.6 -37.1°
